This is the latest recevied weather packets stored in our database for station/object SV1JCZ-13. If no packets are shown the sender has not sent any weather packets the latest 10 day(s).
| Time | Temp. | Humidity | Pressure | Rain* | Wind** | Luminosity | Snow |
|---|---|---|---|---|---|---|---|
| 1777559955 | 22.22° C | 56% | 0 hPa | 0 mm | - | - | - |
| 1777559595 | 21.67° C | 56% | 0 hPa | 0 mm | - | - | - |
| 1777559235 | 21.67° C | 59% | 0 hPa | 0 mm | - | - | - |
| 1777558875 | 22.22° C | 58% | 0 hPa | 0 mm | - | - | - |
| 1777558636 | 22.22° C | 58% | 0 hPa | 0 mm | - | - | - |
| 1777558515 | 22.22° C | 58% | 0 hPa | 0 mm | - | - | - |
| 1777558155 | 21.67° C | 59% | 0 hPa | 0 mm | - | - | - |
| 1777557795 | 21.67° C | 61% | 0 hPa | 0 mm | - | - | - |
| 1777557435 | 21.11° C | 61% | 0 hPa | 0 mm | - | - | - |
| 1777557075 | 20.56° C | 61% | 0 hPa | 0 mm | - | - | - |
| 1777556715 | 20.56° C | 62% | 0 hPa | 0 mm | - | - | - |
| 1777556355 | 20.56° C | 62% | 0 hPa | 0 mm | - | - | - |
| 1777556236 | 20.56° C | 62% | 0 hPa | 0 mm | - | - | - |
| 1777555995 | 20.56° C | 62% | 0 hPa | 0 mm | - | - | - |
| 1777555635 | 20.56° C | 61% | 0 hPa | 0 mm | - | - | - |
| 1777555275 | 21.11° C | 61% | 0 hPa | 0 mm | - | - | - |
| 1777555036 | 21.11° C | 61% | 0 hPa | 0 mm | - | - | - |
| 1777554915 | 21.11° C | 60% | 0 hPa | 0 mm | - | - | - |
| 1777554555 | 21.11° C | 58% | 0 hPa | 0 mm | - | - | - |
| 1777554195 | 21.11° C | 56% | 0 hPa | 0 mm | - | - | - |
| 1777553835 | 21.67° C | 57% | 0 hPa | 0 mm | - | - | - |
| 1777553475 | 21.67° C | 54% | 0 hPa | 0 mm | - | - | - |
| 1777553115 | 21.67° C | 54% | 0 hPa | 0 mm | - | - | - |
| 1777552755 | 21.67° C | 53% | 0 hPa | 0 mm | - | - | - |
| 1777552395 | 21.11° C | 54% | 0 hPa | 0 mm | - | - | - |
* Rain latest hour (hover to see other rain measurements)
** Current wind speed in m/s (hover to see current wind gust speed)